Temperature
7 7 7 7 7 6 6 7 7 7 7 6 6 6 6 6 6 6 6 6 6 6 6 6 6 6 5 5 5 5 5 4 4 4 4 4 4 4 4 4 4 4 4
7 7 7 6 6 6 6 6 6 6 6 6 6 6 6 6 6 6 6 6 6 6 6 5 5 5 5 5 5 5 4 4 4 4 4 4 4 4 4 4 4 4 4
6 6 6 6 6 6 6 6 6 6 6 6 6 6 6 5 5 5 5 5 5 5 5 5 5 5 5 5 4 4 4 4 4 3 3 3 3 3 3 3 3 3 3
6 6 6 6 6 5 5 5 5 5 5 5 5 5 5 5 5 5 5 5 5 5 5 5 5 4 4 4 4 4 4 3 3 3 3 3 3 3 3 3 3 3 3
6 6 6 5 5 5 5 5 5 5 5 5 5 5 5 5 5 5 5 4 4 4 4 4 4 4 4 4 4 3 3 3 3 2 2 2 2 2 2 2 2 2 2
6 5 5 5 5 5 5 5 5 5 5 5 5 5 5 5 5 4 4 4 4 4 4 4 4 4 3 3 3 3 3 3 2 2 2 2 2 2 1 1 1 1 1
5 5 5 5 5 5 5 5 5 4 4 4 4 4 4 4 4 4 4 4 4 3 3 3 3 3 3 3 3 3 2 2 2 2 2 1 1 1 1 1 1 0 0
5 5 5 5 4 4 4 4 4 4 4 4 4 4 4 4 4 4 3 3 3 3 3 3 3 3 2 2 2 2 2 2 2 1 1 1 1 1 1 0 -0 -0 0
4 4 4 4 4 4 4 4 4 4 4 4 3 3 3 3 3 3 3 3 3 2 2 2 2 2 2 2 2 1 1 1 1 1 1 1 0 0 0 -0 -1 -1 -1
4 4 4 4 4 4 4 3 3 3 3 3 3 3 3 3 3 2 2 2 2 2 2 2 2 2 2 1 1 1 1 1 1 0 0 0 -0 -0 -0 -1 -1 -1 -2
4 4 4 4 3 3 3 3 3 3 3 3 3 2 2 2 2 2 2 1 1 1 1 1 1 1 1 1 1 0 0 0 -0 -0 -0 -0 -1 -1 -1 -1 -1 -2 -2
3 3 3 3 3 3 3 3 2 2 2 2 2 2 2 2 2 2 1 1 1 1 1 1 1 0 0 0 0 -0 -0 -1 -1 -1 -1 -1 -1 -1 -1 -1 -2 -2 -2
2 2 2 2 2 2 2 2 2 2 2 2 1 1 1 1 1 1 1 1 0 0 0 0 -0 -0 -0 -0 -0 -1 -1 -1 -1 -2 -2 -1 -2 -2 -2 -2 -2 -2 -2
2 2 2 2 2 2 2 1 1 1 1 1 1 1 1 1 1 1 0 0 -0 -0 -1 -1 -1 -1 -1 -1 -1 -1 -1 -2 -2 -2 -2 -2 -2 -2 -2 -2 -3 -3 -3
2 1 1 1 1 1 1 1 1 1 1 1 1 1 0 0 0 0 -0 -0 -1 -1 -1 -1 -1 -1 -2 -2 -2 -2 -2 -2 -2 -2 -3 -3 -3 -3 -3 -3 -3 -4 -4
1 1 1 1 1 1 1 1 1 1 1 0 0 0 -0 -0 -0 -1 -1 -1 -1 -2 -2 -2 -2 -2 -2 -2 -2 -2 -3 -3 -3 -3 -3 -3 -3 -3 -4 -4 -4 -4 -4
0 0 0 0 0 0 0 0 0 0 0 -0 -0 -0 -1 -1 -1 -1 -1 -1 -1 -2 -2 -2 -2 -3 -3 -3 -3 -3 -3 -3 -3 -4 -4 -4 -4 -4 -4 -4 -4 -5 -5
-0 -0 -0 -0 -0 -0 -0 -0 -0 -1 -1 -1 -1 -1 -1 -1 -1 -2 -2 -2 -2 -2 -3 -3 -3 -3 -3 -3 -4 -4 -4 -4 -4 -4 -4 -4 -4 -5 -5 -5 -5 -5 -5
-1 -1 -1 -1 -1 -1 -1 -1 -1 -1 -1 -1 -1 -1 -1 -2 -2 -2 -2 -3 -3 -3 -3 -3 -4 -4 -4 -4 -4 -4 -4 -4 -4 -5 -5 -5 -5 -5 -5 -5 -5 -6 -6
-1 -1 -2 -2 -2 -2 -2 -2 -2 -2 -2 -2 -2 -2 -2 -2 -2 -3 -3 -3 -3 -4 -4 -4 -4 -4 -4 -5 -5 -5 -5 -5 -5 -5 -5 -5 -5 -5 -6 -6 -6 -6 -6
-2 -2 -2 -2 -2 -2 -3 -3 -3 -3 -3 -3 -3 -3 -3 -3 -3 -3 -3 -4 -4 -4 -4 -5 -5 -5 -5 -5 -5 -5 -6 -6 -6 -6 -6 -6 -6 -6 -6 -6 -6 -6 -7
-3 -3 -3 -3 -3 -3 -3 -3 -3 -3 -3 -3 -3 -3 -3 -4 -4 -4 -4 -4 -4 -5 -5 -5 -5 -5 -5 -5 -6 -6 -6 -6 -6 -6 -6 -6 -6 -6 -6 -7 -7 -7 -7
-4 -4 -4 -4 -4 -4 -4 -4 -4 -4 -4 -4 -4 -4 -4 -4 -5 -5 -5 -5 -5 -5 -5 -5 -5 -5 -5 -6 -6 -6 -6 -6 -6 -6 -6 -7 -7 -7 -7 -7 -7 -7 -7
-4 -4 -4 -4 -4 -5 -5 -5 -5 -5 -5 -5 -5 -5 -5 -5 -5 -5 -5 -5 -5 -5 -5 -6 -6 -6 -6 -6 -6 -6 -6 -6 -7 -7 -7 -7 -7 -7 -7 -7 -7 -7 -7
-5 -5 -5 -5 -5 -5 -5 -5 -5 -5 -5 -6 -6 -6 -6 -6 -6 -6 -6 -6 -6 -6 -6 -6 -6 -6 -6 -6 -6 -6 -7 -7 -7 -7 -7 -7 -7 -7 -7 -7 -8 -8 -8
-5 -5 -6 -6 -6 -6 -6 -6 -6 -6 -6 -6 -6 -6 -6 -6 -6 -6 -6 -6 -6 -6 -6 -6 -6 -6 -6 -7 -7 -7 -7 -7 -7 -7 -7 -7 -7 -7 -8 -8 -8 -8 -8
Wind_Speed
7 6 6 5 5 5 5 5 5 4 4 5 5 5 5 5 4 4 4 4 5 5 5 6 6 6 5 5 5 5 6 6 8 6 5 5 6 6 6 7 8 8 8
6 6 6 5 5 5 5 5 5 5 5 5 5 5 5 5 4 5 5 5 5 5 5 6 6 5 7 6 6 7 6 7 7 8 6 5 6 7 7 7 7 7 8
6 6 5 5 5 5 5 5 4 5 5 5 5 5 5 5 5 5 5 5 5 6 6 6 7 7 7 7 7 7 6 6 7 7 7 5 5 5 6 6 7 6 7
6 6 5 5 6 5 5 5 5 5 5 5 5 5 5 5 5 5 5 5 5 6 6 6 7 7 8 7 7 8 7 7 7 7 6 6 6 5 5 6 6 5 5
6 6 6 5 5 4 4 4 4 4 4 4 5 5 5 5 5 5 5 5 5 6 6 6 7 7 8 7 6 7 7 7 7 7 7 6 6 5 5 5 6 6 7
6 5 5 5 5 5 4 4 4 4 4 4 5 5 5 4 4 5 5 5 5 6 6 6 6 7 8 9 10 10 9 9 9 8 7 8 8 7 6 5 6 6 6
5 4 4 4 5 5 4 4 4 4 4 5 5 5 6 5 5 6 6 6 6 6 6 6 5 6 7 7 8 10 11 12 12 10 10 10 9 7 6 7 7 7 8
5 4 4 5 4 4 4 5 5 4 4 5 5 5 5 5 5 6 6 6 6 7 7 6 6 6 6 6 6 7 8 9 10 10 10 10 8 7 7 8 8 8 8
5 5 5 5 5 4 4 5 4 4 4 5 5 5 5 5 5 5 5 5 5 6 6 6 6 6 6 7 7 8 8 8 8 11 12 11 11 10 9 6 6 6 7
5 5 5 5 5 5 4 4 4 4 5 4 4 5 5 5 5 6 6 4 5 5 5 5 6 7 6 7 7 8 9 8 6 6 7 9 9 9 10 9 7 7 6
4 4 4 4 4 4 4 3 4 4 4 4 4 4 5 5 5 6 6 5 5 5 4 4 4 6 7 8 9 8 8 7 6 7 6 6 6 6 6 7 7 7 7
3 4 4 3 3 3 4 3 3 3 4 4 4 4 4 4 5 6 7 6 5 5 5 5 4 5 7 9 8 8 9 8 6 6 6 6 6 6 5 6 7 8 8
4 4 4 3 3 4 4 4 3 3 4 4 4 4 3 3 4 6 7 7 6 5 5 5 6 7 7 7 8 8 7 6 6 6 7 6 6 5 4 4 5 6 8
4 4 4 4 3 3 3 4 4 4 4 4 4 4 4 3 3 3 3 4 5 5 4 5 6 7 6 6 6 6 5 5 6 6 6 6 5 4 5 4 4 4 5
4 3 3 3 3 3 3 4 5 5 5 5 5 4 4 5 5 5 4 4 4 4 4 4 4 4 4 4 4 5 5 5 5 5 5 5 5 5 5 4 4 5 6
3 3 3 3 3 3 3 3 4 6 6 8 8 7 6 8 8 8 8 7 7 6 5 5 5 5 5 5 5 5 5 5 5 5 5 5 5 5 5 5 5 6 7
4 4 3 3 3 3 3 4 3 3 5 7 8 9 9 9 9 9 8 8 7 6 5 6 6 5 5 5 5 5 5 5 4 5 6 6 5 5 5 6 6 6 7
4 4 4 4 4 4 4 4 4 4 4 4 5 7 8 8 8 8 7 6 5 6 5 6 6 6 5 5 5 6 6 5 5 5 6 6 6 6 6 6 6 7 7
3 3 3 4 4 4 4 4 4 5 5 4 4 4 6 6 7 7 6 5 5 6 6 6 6 6 5 6 6 6 6 6 6 5 6 6 6 6 7 7 7 8 8
3 4 4 4 4 4 4 4 5 5 5 5 5 4 3 3 4 4 4 4 5 6 6 6 6 6 6 6 6 5 6 6 6 6 6 6 6 6 7 8 7 7 7
3 3 4 4 4 4 4 5 5 5 5 5 5 5 5 5 5 5 5 5 5 6 6 6 6 6 6 6 6 6 7 7 6 6 6 6 6 6 6 7 7 7 7
3 3 3 4 4 4 4 5 5 5 5 6 5 5 7 6 5 6 6 6 6 6 6 6 6 6 6 6 6 6 7 7 7 6 6 6 6 6 6 7 7 6 7
4 4 4 4 4 5 5 5 5 5 6 6 6 5 5 6 6 6 6 6 6 6 6 6 6 6 6 6 6 7 7 7 7 6 7 7 6 6 6 7 8 8 7
4 5 5 5 5 5 5 6 6 6 6 6 6 6 6 6 6 7 7 6 6 6 6 6 6 8 9 7 7 8 8 9 8 7 8 8 8 7 7 7 8 8 8
4 5 5 5 5 6 6 6 6 6 6 6 6 6 6 6 6 7 6 6 7 7 7 7 6 7 9 10 9 9 10 12 12 9 8 7 8 8 8 8 7 7 7
5 5 5 5 5 6 6 6 6 6 6 6 6 6 6 6 6 6 6 6 6 7 7 7 8 9 10 9 10 11 12 13 13 12 9 7 8 8 8 7 8 7 7
Wind_Direction
185 186 184 183 188 193 197 202 201 199 196 200 206 208 210 211 211 217 223 219 223 227 222 226 230 230 232 231 228 230 234 241 254 266 265 268 266 268 275 275 276 276 273
187 187 187 180 191 197 199 201 200 202 203 205 208 211 214 217 220 224 228 226 227 231 231 232 234 230 233 233 231 232 234 236 247 264 269 271 270 272 278 279 281 278 276
185 188 185 187 197 201 200 199 199 203 207 208 212 216 218 222 226 231 233 235 235 238 236 236 238 234 236 235 233 234 234 235 239 251 263 270 274 277 283 282 279 279 279
184 186 191 199 205 206 203 201 202 206 208 210 215 219 223 224 227 229 233 240 244 246 246 244 243 240 240 240 238 236 235 235 237 244 255 264 269 276 275 280 284 283 282
185 188 196 202 204 204 204 202 201 208 214 215 218 223 226 228 228 227 233 242 248 251 251 249 247 245 248 246 242 238 232 235 239 244 251 259 261 264 267 275 279 290 287
189 192 193 195 197 205 207 205 208 215 219 221 226 229 231 233 232 235 242 243 246 249 252 252 248 242 242 243 245 246 242 238 240 244 249 252 259 263 268 270 279 287 286
191 191 194 198 204 210 208 209 215 221 223 227 232 233 238 238 229 236 240 246 247 248 247 248 245 242 239 245 242 239 242 242 244 247 251 254 261 260 261 264 266 271 276
192 195 199 203 208 211 213 218 223 225 228 234 237 239 245 245 233 239 240 244 250 252 249 247 248 248 242 243 248 249 250 247 242 243 249 256 260 259 252 260 270 277 281
200 201 203 205 205 208 216 224 227 228 234 237 241 242 246 249 231 234 237 243 247 252 252 248 247 250 249 244 247 252 258 261 251 244 251 256 260 257 254 257 259 263 276
209 208 206 203 203 208 216 225 227 227 234 236 240 243 244 249 234 230 236 240 247 254 255 250 244 249 254 249 252 253 257 263 264 257 251 249 251 249 243 242 245 251 267
211 203 205 206 206 210 212 219 217 218 224 231 240 247 246 247 239 232 235 240 247 253 256 257 255 248 257 258 259 258 261 268 269 265 263 259 255 250 246 244 243 241 251
204 206 211 212 208 207 208 213 214 215 221 231 238 248 250 247 243 238 239 245 254 253 256 260 264 257 265 267 264 263 265 267 263 261 260 259 257 255 252 250 250 251 254
205 209 210 209 209 205 206 210 212 215 224 233 238 245 254 255 249 248 248 248 251 257 263 266 274 274 274 270 264 268 265 258 252 253 257 258 257 259 260 261 259 257 262
211 214 209 209 213 212 212 211 216 218 223 231 238 246 256 259 254 248 253 254 250 255 264 264 266 268 265 270 272 267 259 253 253 255 260 263 263 258 255 254 260 263 269
218 221 221 221 220 221 225 228 229 232 232 234 240 244 248 256 255 254 259 260 259 257 266 264 261 261 262 261 263 264 261 254 254 256 259 261 260 258 261 258 257 261 264
220 226 229 227 226 228 234 254 246 242 249 249 250 249 253 256 261 258 260 266 266 256 258 255 255 255 259 263 266 266 264 262 259 257 258 257 259 260 263 261 257 257 264
228 230 233 233 233 234 234 241 262 261 242 244 245 247 249 255 257 258 260 261 258 250 253 254 257 258 258 261 264 266 268 267 262 257 256 257 258 258 260 262 260 261 264
240 239 235 236 234 235 236 238 242 250 262 265 250 246 251 255 257 256 255 258 255 246 250 254 258 261 261 262 264 266 267 268 262 260 257 255 255 257 259 261 261 263 267
246 244 241 241 238 236 237 238 241 244 249 257 264 257 249 253 255 250 242 244 248 253 255 257 259 262 263 264 265 265 265 265 263 262 261 257 255 256 258 260 262 263 265
256 249 247 247 246 242 239 239 242 244 248 252 254 256 254 255 256 253 246 247 251 255 257 259 262 262 264 264 263 263 265 265 264 262 262 260 258 255 258 261 262 264 265
263 259 245 245 246 247 246 246 246 247 250 255 258 258 253 252 253 254 253 252 253 257 260 262 263 262 261 262 261 259 259 261 261 260 260 261 259 257 258 259 260 262 265
257 257 253 250 250 248 249 249 249 251 253 257 262 261 255 253 253 255 256 257 259 260 261 261 262 261 258 257 257 258 259 260 261 257 257 260 260 258 258 259 260 261 263
256 256 257 254 252 250 252 251 250 250 253 256 259 260 257 254 256 257 260 263 264 262 260 257 261 263 260 256 254 253 256 259 259 257 257 259 259 257 257 258 258 261 261
256 254 255 255 252 250 250 252 251 251 253 256 258 257 257 257 260 262 263 265 265 265 262 259 259 261 261 261 259 255 254 257 257 254 251 253 256 259 259 258 258 257 259
261 258 256 254 254 254 254 254 254 253 253 255 256 257 259 260 263 266 266 266 267 267 266 265 263 263 262 261 259 259 260 260 258 255 249 248 251 253 256 257 256 258 258
265 262 260 260 258 257 256 256 256 257 257 257 257 259 261 262 265 268 269 268 269 269 268 267 264 265 268 267 264 263 264 265 263 258 253 247 249 253 254 253 254 254 258
Height
1469 1470 1472 1473 1475 1477 1479 1480 1481 1482 1484 1484 1485 1486 1486 1487 1487 1488 1488 1488 1489 1489 1489 1490 1490 1491 1491 1491 1491 1492 1492 1492 1491 1490 1490 1489 1488 1487 1486 1485 1484 1483 1482
1466 1468 1469 1471 1473 1474 1476 1477 1478 1479 1480 1481 1482 1482 1483 1483 1484 1484 1484 1484 1485 1485 1485 1485 1486 1486 1486 1487 1487 1487 1487 1487 1487 1486 1485 1485 1484 1483 1482 1481 1480 1478 1477
1464 1465 1466 1468 1470 1471 1473 1474 1475 1476 1477 1478 1478 1479 1479 1480 1480 1480 1480 1480 1481 1481 1481 1481 1482 1482 1482 1482 1482 1482 1482 1482 1482 1481 1480 1480 1479 1478 1477 1476 1475 1473 1472
1460 1462 1463 1465 1467 1468 1470 1471 1472 1473 1474 1474 1474 1475 1475 1476 1476 1476 1476 1476 1476 1476 1477 1477 1477 1477 1477 1477 1477 1477 1477 1477 1476 1476 1475 1475 1474 1473 1472 1470 1469 1468 1466
1457 1459 1461 1462 1464 1465 1466 1467 1468 1469 1470 1471 1471 1471 1472 1472 1472 1472 1472 1472 1472 1472 1472 1472 1472 1473 1473 1472 1472 1472 1472 1472 1471 1471 1470 1469 1468 1468 1467 1465 1464 1462 1461
1454 1456 1458 1459 1461 1462 1463 1464 1465 1465 1466 1467 1467 1467 1467 1468 1468 1468 1468 1468 1468 1468 1467 1467 1468 1468 1467 1467 1467 1467 1466 1466 1466 1465 1464 1464 1463 1463 1462 1461 1459 1457 1455
1452 1453 1455 1456 1457 1458 1459 1460 1461 1461 1462 1462 1463 1463 1463 1464 1464 1464 1464 1464 1464 1463 1463 1463 1463 1463 1463 1462 1461 1461 1460 1460 1461 1460 1459 1458 1458 1457 1456 1455 1454 1452 1450
1449 1450 1452 1453 1454 1454 1455 1456 1457 1457 1458 1458 1458 1459 1459 1459 1459 1459 1459 1459 1459 1459 1459 1458 1458 1457 1457 1457 1456 1455 1454 1454 1454 1454 1453 1453 1453 1452 1451 1450 1449 1447 1445
1446 1447 1448 1449 1450 1451 1451 1452 1452 1453 1453 1454 1454 1454 1454 1454 1455 1455 1455 1454 1454 1454 1454 1453 1453 1452 1452 1452 1451 1449 1449 1448 1448 1448 1447 1447 1446 1446 1445 1444 1443 1441 1438
1442 1444 1445 1446 1446 1447 1447 1448 1448 1449 1449 1450 1450 1450 1450 1450 1450 1450 1450 1449 1449 1449 1448 1448 1448 1447 1447 1446 1446 1444 1443 1443 1443 1442 1441 1440 1440 1439 1439 1438 1437 1436 1433
1439 1440 1441 1442 1443 1443 1444 1444 1444 1445 1446 1446 1446 1446 1446 1446 1446 1446 1445 1445 1445 1444 1444 1443 1443 1443 1442 1441 1441 1440 1439 1438 1437 1436 1435 1434 1434 1433 1433 1432 1432 1431 1429
1436 1436 1437 1438 1439 1440 1440 1441 1441 1441 1441 1441 1441 1441 1441 1441 1441 1441 1441 1440 1440 1440 1439 1439 1438 1438 1437 1436 1436 1435 1435 1434 1432 1431 1430 1429 1428 1428 1427 1426 1426 1424 1423
1432 1433 1434 1435 1436 1436 1437 1437 1437 1437 1437 1437 1437 1437 1437 1437 1437 1437 1436 1436 1435 1435 1435 1434 1434 1433 1432 1431 1431 1430 1429 1428 1427 1426 1425 1424 1423 1422 1421 1420 1419 1418 1417
1429 1430 1430 1431 1432 1432 1433 1433 1433 1433 1433 1433 1433 1433 1432 1432 1432 1432 1432 1431 1431 1431 1430 1430 1429 1428 1427 1427 1426 1425 1424 1423 1422 1421 1420 1418 1417 1417 1416 1415 1413 1412 1410
1425 1426 1427 1427 1428 1428 1429 1429 1429 1429 1429 1429 1429 1429 1428 1428 1428 1428 1427 1427 1426 1426 1426 1425 1424 1423 1422 1421 1420 1420 1419 1418 1417 1416 1414 1413 1412 1411 1410 1409 1408 1407 1405
1422 1422 1423 1423 1424 1424 1424 1425 1425 1425 1425 1425 1424 1424 1424 1424 1424 1423 1423 1423 1422 1422 1421 1420 1419 1418 1418 1417 1416 1415 1414 1412 1411 1410 1409 1408 1407 1406 1405 1404 1403 1401 1400
1418 1418 1419 1419 1420 1420 1420 1420 1420 1420 1420 1420 1420 1420 1419 1419 1419 1419 1418 1418 1417 1417 1416 1415 1414 1413 1412 1411 1411 1410 1408 1407 1406 1405 1404 1403 1402 1401 1400 1398 1397 1396 1394
1414 1414 1415 1415 1416 1416 1416 1416 1416 1415 1415 1414 1415 1415 1414 1414 1414 1414 1413 1413 1412 1411 1410 1410 1409 1408 1407 1406 1405 1404 1403 1402 1401 1399 1398 1397 1396 1395 1394 1393 1392 1391 1389
1410 1410 1410 1411 1411 1411 1411 1411 1411 1411 1410 1410 1409 1409 1409 1409 1409 1409 1408 1407 1406 1406 1405 1404 1404 1403 1402 1401 1400 1398 1397 1396 1395 1394 1392 1392 1391 1390 1389 1387 1386 1385 1384
1406 1406 1407 1407 1407 1407 1407 1406 1406 1406 1405 1405 1404 1404 1404 1404 1403 1403 1403 1402 1401 1400 1399 1399 1398 1397 1396 1395 1394 1393 1391 1390 1389 1388 1387 1386 1385 1384 1383 1382 1381 1380 1379
1403 1403 1403 1402 1402 1402 1402 1402 1401 1401 1400 1400 1399 1399 1399 1399 1398 1398 1397 1397 1396 1395 1394 1393 1392 1391 1390 1389 1388 1387 1386 1385 1384 1383 1382 1381 1380 1379 1378 1377 1376 1375 1373
1399 1399 1399 1398 1398 1398 1397 1397 1396 1396 1395 1395 1394 1394 1394 1394 1393 1393 1392 1391 1391 1390 1389 1388 1386 1385 1384 1383 1382 1381 1380 1379 1378 1378 1377 1376 1375 1374 1372 1371 1371 1370 1368
1395 1395 1394 1394 1394 1393 1393 1392 1392 1391 1390 1390 1389 1389 1389 1388 1388 1387 1386 1386 1385 1384 1383 1382 1381 1379 1378 1377 1376 1375 1374 1373 1373 1372 1371 1370 1369 1368 1367 1366 1365 1364 1363
1392 1391 1390 1390 1389 1388 1388 1387 1387 1386 1386 1385 1384 1384 1383 1383 1382 1382 1381 1380 1379 1378 1377 1376 1375 1373 1373 1371 1370 1369 1368 1367 1366 1366 1365 1364 1363 1363 1362 1361 1360 1359 1359
1387 1387 1386 1385 1384 1384 1383 1382 1382 1381 1381 1380 1379 1379 1378 1378 1377 1376 1376 1375 1374 1373 1371 1370 1369 1367 1366 1365 1364 1363 1362 1361 1360 1359 1359 1358 1357 1357 1356 1356 1355 1354 1353
1383 1382 1381 1380 1380 1379 1378 1377 1377 1376 1376 1375 1374 1374 1373 1372 1371 1371 1370 1369 1368 1367 1366 1364 1363 1362 1360 1359 1358 1357 1356 1355 1354 1353 1353 1352 1352 1351 1351 1350 1350 1349 1348